GFSNGP_sfc_dewp_072.txt.gz
Dewpoint
23 20 20 22 22 22 21 24 26 29 23 22 22 24 28 29 31 34 34 28 31 35 46 49 53 57 56 55 54 53 52 50 49 49 47 47 48 47 47 46 45 44 43 43
27 22 22 20 21 22 20 19 18 21 21 22 20 21 26 24 24 28 31 37 35 37 47 52 56 53 52 51 51 50 49 48 48 47 47 46 46 45 45 44 43 42 42 43
27 25 22 23 24 19 18 20 20 20 23 23 24 23 26 30 28 29 35 40 42 42 53 55 53 52 50 49 49 48 47 47 47 46 46 46 44 44 43 43 42 42 41 42
31 33 24 25 25 22 22 20 22 20 22 22 23 24 29 32 35 36 40 43 45 51 53 53 52 50 49 48 47 47 47 46 46 44 43 42 41 40 40 40 40 41 42 42
31 29 26 24 25 25 25 25 26 23 23 22 23 32 33 33 37 40 43 46 48 50 51 51 50 49 48 47 46 46 45 44 42 42 40 40 40 40 40 42 42 42 39 34
35 28 27 31 27 31 30 27 27 26 29 28 29 35 34 36 39 43 43 45 47 48 49 49 49 48 47 45 44 44 43 42 41 41 40 40 41 41 42 42 39 32 31 34
34 33 32 29 28 33 28 31 34 31 31 34 31 38 39 40 43 43 42 43 45 46 45 45 45 45 43 42 41 41 41 40 40 40 40 41 41 37 34 33 35 34 32 30
35 33 30 33 33 28 34 42 38 37 38 41 43 42 41 41 41 40 40 42 43 43 42 42 43 43 41 40 40 40 39 39 39 37 32 32 33 32 31 33 30 28 28 28
34 36 42 42 39 41 41 41 43 42 40 41 43 40 40 40 40 39 39 40 41 41 42 42 42 41 39 39 39 37 36 33 31 29 29 29 30 27 25 25 26 29 27 29
32 36 39 40 42 43 39 42 40 42 41 41 42 40 40 39 38 38 38 38 39 40 40 40 40 38 36 35 35 34 32 30 28 25 22 20 18 19 25 27 29 27 27 27
32 31 34 34 36 42 42 42 42 40 41 40 43 40 38 37 37 37 37 37 38 39 39 37 35 34 33 33 33 30 28 24 22 22 23 22 22 22 27 25 25 25 25 25
39 37 39 38 42 42 44 44 44 43 41 40 41 40 38 37 37 37 36 36 37 36 34 32 31 30 29 29 27 25 21 23 28 28 25 20 22 22 25 23 22 21 20 23
36 40 42 44 40 39 40 41 42 42 44 40 41 39 38 37 37 35 35 35 34 33 31 28 27 22 21 24 24 24 22 22 23 24 24 23 24 25 24 22 20 20 20 18
32 43 42 40 40 39 39 39 40 39 40 40 40 38 37 35 35 34 33 33 31 28 25 21 18 18 19 20 20 21 20 26 24 25 24 26 24 24 24 24 24 24 21 19
41 42 41 40 39 37 37 37 37 37 38 37 37 36 34 33 32 32 31 28 25 22 18 17 17 17 19 22 21 23 22 24 25 25 22 21 23 23 23 22 22 21 21 21
40 38 38 38 37 37 37 37 36 36 35 35 35 35 33 30 28 25 25 24 21 20 21 23 23 24 22 24 24 22 17 20 20 21 21 21 21 20 19 20 19 20 20 20
40 38 39 38 37 37 37 37 36 35 35 33 29 28 27 26 25 24 24 24 24 24 24 24 24 22 17 15 15 15 17 15 16 17 18 18 18 18 18 19 18 18 18 16
40 40 39 39 38 37 33 32 31 30 29 28 26 25 23 22 21 22 22 23 22 21 22 22 19 13 13 11 12 14 17 16 15 16 16 19 17 15 16 17 16 15 16 16
36 35 34 33 33 32 31 30 29 29 28 27 25 24 24 24 23 23 22 21 20 19 19 20 17 13 10 14 13 17 17 17 16 15 16 15 17 16 17 17 16 14 13 13
32 31 30 30 30 29 28 28 28 27 28 26 25 23 22 23 24 24 23 21 21 19 15 10 10 9 9 9 14 13 17 18 16 16 18 16 15 16 15 12 14 14 13 13
29 29 29 28 29 29 29 29 27 27 27 25 24 23 23 24 23 23 21 16 13 15 13 15 13 12 10 10 11 18 18 17 17 16 16 15 15 14 14 13 13 12 11 11
30 29 29 29 28 28 28 26 25 24 24 24 24 23 22 22 21 20 21 17 15 16 16 17 13 12 10 12 16 18 16 16 15 15 15 15 14 12 11 11 10 10 10 8
29 28 28 26 25 26 26 26 26 25 25 24 23 22 21 21 22 20 17 17 17 20 18 15 11 10 9 15 17 16 15 13 13 13 12 12 12 11 9 9 9 8 7 7
28 27 26 24 22 20 20 19 20 21 21 20 20 22 24 22 20 19 19 17 16 17 15 14 11 9 6 15 15 13 12 12 11 12 11 6 8 9 9 8 7 8 6 6
25 23 21 20 18 18 18 18 19 20 20 20 20 19 19 20 20 21 20 17 14 16 14 10 11 7 12 13 13 11 10 10 11 8 9 8 6 6 6 6 6 6 4 1
24 23 24 23 22 21 21 22 22 22 20 20 21 21 21 21 20 18 17 16 15 13 15 15 13 13 11 10 7 7 9 8 8 8 6 5 4 4 4 3 3 2 2 1
22 21 19 19 18 19 19 19 18 18 21 20 18 18 18 19 17 16 15 14 14 13 12 12 11 9 10 8 8 8 6 6 6 5 4 4 2 2 2 1 -0 -1 -2 -3

GFSNGP_sfc_dewp_075.txt.gz
Dewpoint
27 24 25 26 25 24 22 26 29 29 28 30 26 24 25 28 31 31 30 30 31 41 45 55 55 54 53 52 52 51 51 49 48 49 49 48 48 47 46 46 45 45 44 43
28 28 23 23 24 24 23 24 23 24 28 30 27 22 24 25 33 32 32 37 40 43 53 54 53 52 51 50 50 50 49 48 48 48 47 46 46 46 46 44 44 43 43 42
26 29 27 24 25 24 24 25 24 22 24 24 23 23 24 25 25 30 38 40 42 53 55 53 52 50 49 49 49 48 47 47 47 46 46 46 45 44 43 43 43 42 42 42
30 30 23 27 26 25 25 24 23 24 25 24 23 24 29 31 33 39 41 42 51 53 52 51 50 49 49 48 48 47 47 46 46 45 44 44 43 43 42 42 41 40 40 40
29 28 29 28 26 27 25 25 25 25 26 24 24 30 32 34 34 40 43 46 51 52 51 50 49 48 47 47 47 46 45 44 44 43 42 42 41 41 40 39 40 41 42 34
33 27 24 30 31 29 31 25 29 29 29 29 30 29 31 35 43 44 46 48 49 51 50 49 48 48 47 46 45 44 43 42 42 41 41 40 39 39 40 42 41 33 33 32
29 31 33 33 30 33 25 27 30 33 32 31 30 34 36 42 43 44 45 47 48 49 49 49 47 47 45 45 44 43 42 41 41 40 40 39 40 41 40 34 33 30 28 30
33 31 31 35 33 29 33 36 34 37 35 40 39 40 42 43 43 42 43 45 45 45 44 45 46 45 43 42 42 41 40 40 40 40 40 39 34 32 33 32 29 27 27 27
36 33 39 40 35 40 38 38 38 38 39 42 41 40 42 42 41 41 42 43 43 42 42 43 42 41 40 40 40 40 40 38 32 32 32 31 29 27 26 27 27 26 27 27
36 36 37 43 40 41 40 39 39 39 38 43 40 41 40 40 39 40 41 41 41 42 41 41 41 39 39 39 38 34 31 29 26 23 22 22 24 27 27 26 25 26 27 25
35 33 34 38 37 39 40 42 41 41 39 39 42 40 40 38 38 38 39 40 40 40 36 34 35 34 35 35 32 29 25 22 24 24 23 21 25 26 24 24 26 25 24 24
32 34 35 37 40 42 40 43 43 42 40 39 40 40 39 38 38 37 38 39 35 32 31 27 22 22 26 28 26 24 24 24 26 25 25 22 22 24 26 25 22 21 22 23
34 39 43 43 40 40 41 41 41 41 41 40 40 39 38 38 37 36 34 32 30 24 20 19 19 19 22 25 24 24 22 24 25 25 26 26 27 27 23 22 20 21 19 18
31 41 40 40 40 40 39 38 40 39 39 40 39 38 36 35 34 33 30 25 19 18 18 19 19 20 22 22 25 26 27 28 26 26 26 25 24 24 24 25 23 23 22 21
42 41 42 40 38 37 38 38 37 36 36 34 34 34 33 32 30 25 20 18 18 18 18 19 22 24 26 26 25 26 26 26 26 24 23 23 24 23 23 23 22 22 22 22
41 40 40 38 37 37 37 37 36 34 30 29 27 25 24 22 21 21 21 21 21 22 22 23 23 25 27 26 25 23 22 24 24 23 23 22 22 21 20 20 20 20 19 19
38 38 38 38 37 36 33 32 30 29 28 26 25 24 23 22 22 22 23 23 22 22 22 21 21 24 24 25 24 24 23 20 20 20 19 19 20 19 18 18 17 17 16 12
36 39 39 36 34 31 29 29 28 26 24 24 24 24 23 22 21 20 20 21 20 20 21 22 22 21 21 20 19 18 19 18 18 19 18 18 16 16 15 16 16 15 13 14
32 32 32 31 30 29 28 27 26 26 25 25 23 22 22 22 21 21 21 19 18 17 20 21 20 12 10 15 16 18 18 17 17 17 16 14 12 13 12 11 10 8 10 10
29 29 29 28 28 27 26 26 25 25 25 23 23 22 21 21 21 20 20 19 19 18 15 12 11 11 9 11 12 17 17 14 15 13 11 10 6 8 8 10 13 11 7 6
28 28 28 27 27 27 26 26 25 24 24 23 21 21 20 21 20 19 17 14 13 15 13 12 11 11 9 11 15 14 12 9 7 8 5 3 9 9 7 5 4 4 3 2
27 26 26 25 25 24 25 25 24 23 22 22 22 21 20 19 18 17 16 15 18 16 14 13 11 6 7 9 15 9 11 9 7 6 9 7 5 6 4 -2 -6 -4 -4 -9
26 25 25 24 23 24 24 24 23 22 22 21 20 19 19 20 18 16 15 18 16 13 12 10 6 4 4 6 7 6 4 2 1 2 6 1 -2 -4 1 5 5 0 -1 -0
25 24 24 24 24 21 21 21 20 20 20 20 19 20 18 16 16 16 16 14 9 7 6 3 3 4 2 7 6 3 -2 -3 -2 -1 -2 -3 2 1 -3 -5 2 3 1 -2
25 25 23 20 18 18 20 19 18 18 17 17 18 17 16 17 15 15 12 11 13 11 10 9 5 2 -3 -8 -9 -6 -5 -1 2 4 3 -1 -9 -12 -10 -2 -0 -0 -1 -2
22 22 23 23 21 21 21 19 18 18 17 16 16 16 16 15 15 14 11 8 8 5 4 -2 -1 0 -1 -2 -3 -1 -5 -5 -6 -2 -5 -9 -11 -7 -9 -6 -7 -7 -10 -15
21 20 18 17 17 16 16 15 16 16 15 13 12 13 13 11 8 8 4 4 1 -1 -1 -1 -3 -3 -7 -11 -8 -9 -10 -11 -6 -7 -13 -16 -16 -13 -8 -13 -16 -18 -16 -15

GFSNGP_sfc_dewp_078.txt.gz
Dewpoint
25 29 29 28 26 24 24 27 24 25 27 28 31 31 29 26 29 30 29 31 35 40 47 54 53 53 54 53 53 53 52 52 50 50 50 50 50 49 49 48 47 47 46 45
31 32 31 29 27 27 25 25 25 28 28 29 30 31 25 27 29 29 30 35 36 39 53 54 53 51 52 51 51 51 50 48 48 48 48 47 47 47 46 46 45 44 44 43
28 30 29 29 30 28 27 26 26 25 26 27 27 25 24 24 31 31 31 37 44 48 52 53 51 51 50 50 50 49 49 49 49 48 46 46 46 46 45 44 44 43 43 43
28 29 27 31 31 28 27 25 26 24 24 25 24 24 24 26 30 33 36 44 52 53 51 50 50 50 49 49 49 48 48 48 47 47 45 45 44 44 43 43 43 42 42 42
28 27 31 31 29 26 26 24 27 23 23 24 25 30 31 33 37 37 41 50 52 51 49 48 48 48 48 48 48 48 47 46 45 45 44 44 43 43 42 42 41 41 40 34
30 25 23 29 31 31 31 26 29 27 27 27 29 28 29 34 40 44 49 52 51 50 49 48 48 48 47 47 47 45 45 44 44 44 43 42 42 41 40 40 40 37 33 31
29 30 32 36 34 32 27 27 31 31 30 30 28 31 31 39 44 46 49 51 51 50 48 47 47 47 46 45 44 44 44 43 42 42 42 41 40 40 39 34 32 32 29 29
33 30 28 38 37 29 32 35 35 36 36 35 35 38 40 43 44 46 47 50 49 49 47 47 46 45 44 43 42 42 42 41 41 40 39 40 38 36 33 30 29 28 28 27
33 33 39 39 42 42 40 38 38 40 40 41 39 40 43 43 43 45 45 44 45 46 44 44 44 43 41 41 41 41 41 40 38 35 34 32 32 31 30 29 27 27 27 25
36 36 38 38 38 42 38 40 40 40 41 41 39 42 42 41 41 42 43 42 43 42 41 41 42 41 40 40 40 34 29 26 26 25 26 27 26 27 27 27 28 28 28 26
34 33 35 36 35 38 40 41 44 43 39 40 41 41 40 39 40 41 41 42 39 36 34 33 37 37 36 34 29 24 24 24 24 25 26 26 26 24 22 26 28 26 26 26
30 33 33 34 32 38 40 41 43 41 39 39 41 40 40 39 40 40 36 33 26 24 24 24 25 25 26 25 24 22 22 24 26 26 26 24 23 24 27 26 24 26 25 25
33 35 35 39 41 41 41 40 40 40 40 40 41 40 39 38 36 33 25 23 21 20 20 21 22 23 25 26 25 25 24 25 26 26 26 27 27 27 25 25 22 22 20 19
33 41 40 40 40 40 39 39 38 35 36 38 38 37 34 30 25 22 20 20 19 20 21 24 25 27 29 29 28 28 27 27 26 26 26 26 25 25 25 24 24 25 24 24
40 41 40 39 38 38 37 36 32 30 29 28 33 30 24 21 19 18 19 20 22 23 24 24 25 26 27 27 26 26 26 26 25 24 24 24 24 24 24 23 22 21 22 22
40 39 39 38 37 37 35 32 29 27 26 24 22 22 21 21 22 22 22 22 22 21 22 23 23 26 26 25 24 23 23 24 24 24 24 23 22 21 19 19 19 19 18 19
38 37 38 37 33 31 30 29 28 26 24 23 22 22 22 21 21 21 21 21 21 20 21 21 21 24 24 24 24 23 22 21 21 19 19 20 18 17 16 17 16 16 14 11
37 37 35 33 30 29 27 26 25 24 24 23 23 22 21 20 18 18 19 20 19 19 19 20 21 19 19 17 17 17 18 18 18 18 18 16 15 15 14 13 14 15 13 15
33 33 32 31 29 27 26 25 25 24 22 21 21 20 21 20 20 20 20 18 17 16 18 14 16 13 13 17 17 17 16 15 15 15 15 12 12 13 12 11 10 10 12 11
28 28 28 27 27 26 25 25 24 23 23 22 22 20 19 19 19 19 18 17 18 16 13 9 8 11 15 15 15 14 13 12 12 10 9 9 8 7 7 8 8 5 1 2
26 26 25 24 24 24 25 25 24 22 23 22 20 19 18 19 18 16 15 13 11 11 9 9 9 13 14 14 12 11 8 6 4 4 4 3 -3 1 3 -0 0 -0 -0 -2
24 24 24 23 23 23 24 24 23 22 22 21 20 19 17 17 17 17 16 13 12 11 9 10 10 8 9 9 7 5 6 3 1 -2 -4 -5 -5 -6 -5 -6 -0 2 -1 -3
24 24 23 22 22 22 22 22 21 21 19 19 20 19 18 17 16 13 11 12 10 8 8 8 6 4 3 2 -1 -2 -3 -3 -2 -2 -5 -11 -13 -11 -8 -9 -9 -8 -3 -2
23 23 23 24 23 21 19 21 20 20 20 19 18 16 15 13 13 12 11 8 6 7 7 5 3 1 -4 -5 -6 -7 -9 -11 -11 -14 -10 -10 -18 -19 -18 -18 -11 -8 -11 -14
24 24 23 22 20 19 19 19 18 17 16 15 15 15 14 13 11 12 11 11 11 7 4 -1 -1 -5 -8 -11 -12 -14 -17 -17 -16 -12 -17 -19 -21 -21 -17 -17 -19 -18 -20 -19
21 20 21 22 21 20 18 16 15 15 13 13 13 13 13 12 10 8 6 4 4 1 -2 -7 -9 -10 -10 -10 -14 -14 -12 -10 -15 -15 -20 -21 -21 -18 -21 -20 -23 -20 -20 -19
19 19 18 16 17 17 16 15 13 12 12 10 9 9 8 6 4 3 -1 -3 -5 -7 -10 -13 -13 -11 -13 -17 -16 -17 -17 -17 -18 -18 -24 -24 -21 -23 -25 -26 -25 -23 -21 -20

GFSNGP_sfc_dewp_081.txt.gz
Dewpoint
29 24 28 29 28 28 28 26 24 25 27 28 29 29 29 31 29 28 28 34 37 39 41 45 48 49 51 52 53 54 54 54 55 53 53 53 53 52 52 52 52 52 49 47
29 26 24 26 31 31 31 29 24 25 24 29 29 30 31 29 28 29 30 29 37 39 41 51 51 51 51 51 52 51 53 50 50 50 50 50 49 49 49 48 48 47 46 45
27 31 31 30 31 29 29 31 28 26 27 29 30 30 30 30 28 28 30 31 34 39 43 51 50 52 52 51 51 50 49 49 49 49 48 48 47 46 45 45 45 44 44 43
27 28 26 31 33 32 30 30 30 27 27 28 27 29 29 28 27 30 31 32 40 48 50 50 51 50 50 50 50 50 49 49 49 48 47 46 45 45 44 44 43 44 44 43
30 27 28 31 32 32 31 29 31 27 25 24 25 29 28 29 27 29 34 38 50 49 50 50 49 49 49 49 49 48 47 47 47 47 45 44 43 43 43 43 43 42 40 39
32 29 22 28 31 33 32 29 31 29 29 27 29 27 27 31 38 39 45 51 50 48 49 48 49 49 48 48 47 46 46 45 45 45 44 43 43 43 43 42 40 36 32 33
32 31 30 33 37 38 31 30 33 32 31 31 28 31 30 37 42 46 50 50 49 49 48 47 48 48 47 46 45 45 45 44 43 44 43 43 42 41 38 37 34 31 29 29
32 30 26 38 39 32 35 35 35 34 33 33 32 33 34 38 45 49 49 49 49 48 47 47 46 46 45 43 43 43 42 42 42 41 41 41 38 35 34 33 31 29 28 27
34 34 38 40 39 43 42 40 39 40 40 38 36 39 42 44 47 49 49 49 48 47 46 45 45 44 42 41 42 42 41 37 34 34 34 35 34 32 31 30 30 29 27 26
35 35 36 38 40 40 42 40 39 41 40 41 39 42 42 44 44 44 45 46 45 45 43 42 42 41 41 40 36 31 29 29 29 29 27 27 27 28 29 29 29 29 27 25
35 34 35 35 37 38 38 42 41 42 40 40 43 43 42 43 42 42 41 39 38 37 38 38 37 36 33 29 28 26 25 26 27 26 24 23 24 22 24 27 29 28 27 26
31 34 33 32 32 37 37 40 42 42 39 41 42 41 41 41 40 36 32 29 28 27 26 25 25 25 24 25 25 25 24 25 26 26 25 23 23 26 28 26 26 26 26 25
34 35 35 35 39 41 40 40 40 40 41 40 41 41 39 30 26 26 24 24 23 24 25 26 26 27 27 27 27 27 26 27 27 27 27 27 28 28 25 27 29 28 27 26
37 36 38 40 38 41 39 35 34 35 36 36 34 31 27 25 24 23 22 23 25 25 25 26 27 28 28 28 28 28 27 27 26 26 25 25 25 25 25 24 23 25 27 27
39 38 37 40 39 38 35 33 29 26 25 24 25 23 22 21 22 22 23 24 24 25 25 25 24 25 27 27 26 25 24 24 24 24 23 23 23 23 22 22 21 20 20 21
37 38 39 38 37 34 32 30 27 24 23 22 22 22 22 22 22 22 22 23 22 21 22 22 23 24 25 24 23 23 23 23 23 22 21 20 19 18 17 17 17 17 16 16
37 36 36 35 34 31 29 27 25 23 23 22 22 22 21 21 20 20 20 20 20 20 21 21 21 23 23 22 22 19 18 18 18 17 16 16 15 15 15 14 13 13 11 9
34 35 33 32 28 26 25 25 24 23 22 22 22 21 20 18 17 17 18 18 17 17 18 20 20 18 17 17 16 16 17 16 16 16 14 13 13 14 11 11 11 11 11 12
31 30 29 28 27 26 25 24 23 23 22 22 20 18 18 18 19 18 18 16 14 13 15 17 19 17 16 16 14 14 13 13 12 11 11 8 7 8 7 7 5 2 4 5
28 27 27 26 26 25 23 23 23 22 22 21 20 18 17 18 17 16 15 13 13 11 12 14 14 13 12 12 12 10 9 8 8 5 4 3 -2 -3 -2 -1 0 -1 -2 0
25 25 25 24 23 23 23 22 22 21 21 20 18 17 16 17 17 15 12 10 9 11 12 13 12 10 9 8 8 7 5 4 2 -1 -4 -10 -10 -9 -12 -15 -12 -13 -8 -6
24 23 23 22 22 22 23 23 21 20 18 18 18 17 15 14 13 12 12 9 10 11 10 7 6 4 5 5 5 3 2 0 -3 -4 -8 -12 -16 -18 -18 -16 -14 -13 -14 -13
23 22 22 20 20 20 21 20 20 20 18 18 18 18 16 16 14 9 6 8 9 7 5 5 2 1 -1 -1 -4 -5 -6 -7 -9 -12 -17 -22 -23 -23 -22 -22 -19 -19 -20 -17
22 22 22 22 21 19 17 18 18 17 16 16 16 15 12 10 9 10 9 8 6 4 3 2 0 -1 -6 -7 -9 -11 -12 -14 -18 -21 -18 -20 -27 -26 -24 -25 -22 -22 -22 -20
22 22 21 20 18 17 17 18 16 16 15 14 13 12 12 11 9 10 9 7 6 1 -1 -3 -3 -6 -11 -15 -14 -15 -19 -21 -23 -24 -25 -27 -26 -26 -26 -26 -27 -26 -24 -24
21 20 20 20 19 18 17 16 13 13 11 10 10 10 9 9 7 6 5 2 0 -2 -4 -8 -11 -15 -17 -16 -21 -22 -20 -16 -22 -22 -26 -26 -26 -23 -27 -25 -27 -27 -27 -26
18 18 17 16 16 16 15 13 11 10 10 8 7 7 5 4 2 1 -2 -4 -6 -9 -15 -20 -17 -13 -16 -21 -20 -21 -20 -22 -23 -23 -29 -28 -28 -30 -31 -29 -29 -28 -27 -26

GFSNGP_sfc_dewp_084.txt.gz
Dewpoint
33 36 36 34 29 25 24 25 24 25 26 27 29 29 30 30 31 29 27 34 40 44 46 47 48 50 50 51 51 50 50 50 51 52 53 53 53 53 54 55 56 56 54 52
30 29 32 31 29 27 28 29 28 27 25 29 29 30 29 30 30 29 28 28 34 38 43 45 47 48 50 50 51 52 52 51 51 52 52 52 51 51 50 50 49 49 48 47
25 29 31 28 26 28 29 30 29 27 28 28 28 29 29 29 30 29 29 30 30 36 38 42 49 49 50 51 52 51 51 51 50 50 49 49 49 49 47 47 46 45 45 45
29 31 27 31 30 28 28 29 31 30 29 29 29 29 30 31 30 31 30 30 32 36 48 49 49 50 51 51 51 50 49 49 49 49 48 47 47 46 44 45 44 44 44 44
28 28 33 30 32 31 31 27 30 30 31 31 30 27 26 28 31 31 32 32 36 46 49 50 49 50 50 50 50 49 48 48 48 47 46 45 44 43 44 44 43 42 41 41
31 27 24 30 32 37 34 29 33 33 33 32 29 27 26 27 31 29 34 46 48 49 50 49 49 50 49 48 48 47 46 46 46 46 45 44 43 43 43 41 38 36 34 35
30 29 31 36 40 40 28 29 36 35 33 32 29 31 30 33 42 46 49 48 48 49 48 48 49 48 47 47 45 45 45 44 44 44 43 43 42 41 38 35 33 31 30 29
32 29 26 38 39 37 38 41 40 40 39 37 35 35 36 40 48 49 47 47 47 47 47 48 47 47 45 43 43 43 42 42 41 41 40 38 37 37 35 33 30 29 27 27
32 32 37 38 38 37 41 44 40 41 40 41 40 38 42 46 48 48 48 47 47 46 46 45 45 44 42 42 41 37 36 35 34 34 34 35 34 33 33 31 29 28 27 26
34 30 34 34 34 37 39 41 44 39 42 42 40 42 45 45 46 46 46 45 45 44 42 41 41 41 42 39 36 35 33 31 30 29 28 27 28 30 30 30 29 28 27 25
31 34 35 35 37 37 38 40 41 42 43 43 44 43 44 42 39 37 37 38 39 39 37 35 33 31 31 31 30 28 27 26 25 25 24 24 25 26 28 29 30 29 28 27
27 30 34 32 34 37 38 38 40 43 44 43 42 41 36 33 32 31 31 29 28 27 26 25 25 25 26 27 27 27 26 26 26 26 27 27 26 26 29 28 28 28 28 27
32 34 35 35 36 39 39 36 38 37 39 41 41 35 30 27 27 28 27 28 28 28 27 26 26 26 27 28 27 27 27 28 28 28 28 27 27 27 25 28 29 28 27 27
35 38 36 33 37 38 35 36 35 30 29 29 29 28 27 26 27 27 26 27 27 27 27 27 27 27 28 28 27 26 25 25 24 23 23 23 23 23 23 22 21 22 25 25
39 39 38 38 38 34 33 30 27 25 25 24 25 25 25 25 25 25 26 27 26 25 25 24 23 24 26 26 25 25 23 22 22 22 21 20 19 18 19 19 18 17 18 18
36 37 38 38 35 32 30 28 26 24 23 23 23 23 23 23 22 22 22 22 21 20 22 21 21 24 24 23 22 21 20 20 19 18 16 15 16 15 15 14 13 13 11 12
34 35 35 35 32 29 26 25 24 23 22 22 22 22 21 20 18 18 18 19 19 19 20 20 20 22 22 20 18 17 16 16 15 15 14 14 13 12 11 9 9 9 10 10
33 33 34 34 27 25 24 24 24 22 22 22 21 20 18 16 15 16 16 17 17 18 19 19 18 17 16 16 15 15 15 14 13 11 10 9 9 8 7 6 6 6 3 6
29 28 28 27 26 25 24 23 22 22 21 20 19 18 17 16 16 15 16 15 15 14 16 17 18 14 13 14 12 12 10 8 7 7 6 2 1 3 -0 -2 -3 -4 -1 -0
27 26 26 25 25 24 22 22 22 21 20 19 17 15 14 14 14 13 13 13 15 16 13 11 9 8 8 8 8 7 6 5 4 -0 -1 -3 -7 -11 -8 -5 -5 -9 -11 -8
25 25 24 23 23 23 22 21 20 18 18 16 15 14 13 14 14 14 11 9 12 11 8 8 7 7 6 5 5 4 1 -2 -3 -6 -7 -13 -13 -11 -15 -18 -14 -17 -17 -18
23 22 22 22 21 20 21 20 18 18 17 15 14 13 11 11 10 10 12 9 8 7 6 5 4 4 3 4 2 1 -1 -3 -5 -7 -12 -14 -17 -21 -25 -23 -23 -23 -25 -25
22 22 21 20 19 19 20 19 18 17 16 15 14 14 12 12 11 7 5 5 5 5 4 3 1 -0 -2 -2 -4 -6 -7 -11 -12 -15 -21 -26 -27 -28 -26 -26 -25 -27 -24 -22
21 20 20 20 19 17 15 16 16 15 14 14 13 13 10 7 7 7 6 4 3 2 2 0 -2 -3 -6 -7 -8 -11 -14 -17 -23 -26 -22 -26 -31 -31 -28 -30 -26 -27 -28 -26
21 20 19 18 16 15 15 16 14 14 13 12 12 12 10 9 6 6 5 3 4 -0 -3 -5 -5 -7 -11 -12 -13 -18 -24 -25 -26 -27 -29 -29 -29 -30 -31 -31 -32 -31 -29 -29
19 18 18 18 17 16 15 14 11 11 9 7 7 7 7 7 5 3 2 0 -0 -3 -7 -10 -13 -14 -14 -17 -23 -24 -23 -19 -25 -25 -29 -28 -30 -27 -31 -29 -32 -31 -31 -30
17 16 15 14 15 15 14 12 10 8 8 6 4 5 3 2 1 -1 -3 -4 -6 -9 -13 -16 -16 -14 -19 -24 -22 -24 -24 -25 -27 -25 -31 -32 -32 -34 -35 -35 -34 -32 -30 -29

GFSNGP_sfc_dewp_087.txt.gz
Dewpoint
30 29 30 31 29 31 32 33 25 23 23 26 27 31 31 34 33 32 32 30 38 45 48 49 50 52 52 52 52 52 51 52 52 53 53 53 54 55 56 57 57 58 58 58
29 32 31 27 27 28 32 32 31 25 24 30 31 32 31 32 32 32 33 32 31 39 45 48 50 51 52 52 51 51 51 52 52 52 52 54 55 56 57 57 57 57 56 55
24 28 28 25 27 30 31 31 29 27 29 31 29 30 32 32 33 33 33 33 33 33 39 45 48 50 51 52 52 51 51 51 52 53 53 54 54 53 53 53 50 49 48 47
25 28 19 20 30 32 33 31 30 30 31 31 31 32 33 33 32 33 33 33 34 34 40 47 49 50 52 52 53 52 52 52 52 52 51 50 50 49 47 46 46 45 45 44
24 22 24 21 32 32 36 35 35 31 31 31 32 32 31 31 32 33 34 35 36 38 48 50 51 51 51 51 51 50 50 50 49 49 47 46 45 44 45 43 41 40 40 38
27 24 21 27 38 40 37 33 40 39 36 35 34 33 31 33 34 36 33 39 45 48 50 50 50 51 50 50 48 47 47 46 46 46 45 44 44 42 40 38 36 35 34 34
24 23 24 36 39 42 30 31 39 39 41 40 34 34 35 36 48 48 48 49 49 49 49 50 50 50 48 46 45 45 45 44 44 43 43 42 41 38 36 34 32 31 29 30
27 25 24 37 38 33 39 40 40 40 42 42 43 42 40 48 49 48 46 47 47 48 48 48 48 46 44 43 43 43 42 41 40 40 39 38 37 35 34 32 30 29 28 27
31 31 39 37 38 42 42 41 40 40 43 42 43 42 46 46 47 47 46 46 47 46 45 45 45 44 42 42 40 39 37 35 34 33 33 34 34 33 32 31 30 28 27 26
32 31 33 36 36 37 38 39 38 39 43 44 43 45 46 46 45 45 45 44 43 42 42 41 42 41 40 39 37 35 32 30 28 27 28 29 30 30 31 30 29 28 27 26
29 31 33 33 37 36 34 36 40 40 42 46 44 42 39 38 38 37 38 38 36 33 31 31 31 32 33 33 31 29 27 26 26 27 28 27 27 28 27 30 31 29 29 28
28 30 31 29 34 37 36 40 39 42 44 44 44 39 35 34 34 34 32 31 31 30 29 28 28 29 29 29 29 28 26 27 29 28 28 26 26 27 29 28 28 28 27 28
30 34 36 36 37 38 40 37 36 37 45 40 37 34 33 31 31 31 30 29 29 29 29 29 29 29 30 30 30 29 28 27 27 27 26 27 26 25 24 25 25 25 25 26
34 35 35 34 34 39 37 33 31 30 31 33 33 33 32 31 31 29 29 29 29 28 27 27 27 27 29 27 26 25 25 25 24 24 24 24 23 23 23 22 21 20 20 20
32 37 36 38 38 36 33 31 29 26 27 28 28 28 27 27 26 26 27 27 26 25 25 25 24 25 26 26 25 24 23 22 22 21 20 20 19 19 18 17 16 15 14 14
37 37 37 37 39 34 31 30 28 26 26 26 25 24 23 22 21 21 21 21 20 20 21 21 21 23 24 23 21 19 18 18 17 16 16 15 15 14 14 14 13 12 11 10
36 36 37 37 34 30 28 27 26 25 24 24 22 21 20 18 18 18 19 19 19 19 20 19 20 22 22 20 17 15 14 14 15 14 13 12 12 11 11 11 11 10 9 9
33 32 32 33 33 27 25 25 25 24 23 22 21 20 19 18 17 17 17 18 17 16 18 18 17 16 15 14 13 13 13 11 11 10 10 10 8 8 8 7 6 6 6 5
29 28 27 27 27 26 25 24 24 22 21 20 18 17 17 17 17 17 17 15 14 13 15 14 15 12 11 11 10 10 9 9 7 6 5 5 6 4 5 5 4 4 3 2
27 26 26 25 25 24 23 23 22 20 20 17 16 15 14 15 15 15 14 13 14 13 9 7 6 5 5 6 7 6 7 6 3 4 4 3 3 3 2 -1 0 1 1 0
25 25 24 23 22 23 22 21 19 17 17 16 14 13 13 15 15 15 12 9 11 10 7 7 5 4 3 3 3 5 4 3 2 2 1 1 1 -0 -0 -1 -1 -2 -2 -3
23 22 21 20 20 19 20 20 18 17 15 14 14 13 11 11 10 10 11 9 8 6 5 4 4 4 3 3 2 3 1 1 1 0 0 -0 -1 -2 -3 -3 -4 -4 -4 -4
21 20 20 19 18 17 17 17 16 15 14 14 13 13 13 12 11 7 4 3 3 4 2 3 2 1 1 2 2 0 -1 -2 -2 -2 -2 -3 -3 -4 -4 -5 -5 -6 -7 -7
19 19 18 18 18 15 13 14 14 14 13 13 12 12 9 7 7 6 6 4 3 4 3 2 1 -0 -1 0 -1 -2 -2 -3 -3 -3 -5 -8 -4 -5 -5 -7 -8 -8 -10 -11
19 19 18 17 15 13 14 14 13 13 12 11 11 10 9 6 6 5 5 4 2 1 1 -1 -2 -2 -1 -1 -2 -3 -3 -3 -4 -4 -4 -5 -6 -7 -7 -9 -11 -10 -11 -11
18 17 17 17 16 15 14 13 10 10 8 7 7 7 7 6 4 3 2 -0 -1 -2 -1 -1 -2 -2 -2 -3 -3 -4 -4 -5 -4 -5 -6 -7 -8 -9 -11 -11 -12 -12 -12 -12
16 16 14 13 14 14 13 11 9 8 8 7 5 5 3 3 2 -0 -1 -2 -2 -3 -2 -2 -1 -3 -3 -3 -4 -5 -5 -5 -8 -6 -7 -9 -10 -10 -12 -12 -12 -12 -13 -13

GFSNGP_sfc_dewp_093.txt.gz
Dewpoint
16 15 16 18 19 20 21 24 25 24 23 24 25 25 25 26 27 26 26 27 31 39 44 46 48 50 51 52 53 52 51 52 53 55 55 55 56 57 56 57 55 55 55 55
17 19 18 16 12 12 12 15 19 21 21 22 23 25 26 26 24 25 25 25 31 33 39 44 46 49 50 52 53 55 53 53 52 54 53 55 56 56 56 55 55 54 53 53
19 15 18 21 20 17 14 12 14 18 21 22 27 26 26 26 25 23 25 28 30 32 34 38 44 47 49 51 53 53 53 52 52 52 52 54 53 53 53 54 55 52 48 45
24 23 16 14 11 15 16 21 18 12 18 31 30 30 27 26 25 25 28 32 32 33 33 34 38 44 49 50 52 53 53 52 52 53 52 52 53 53 53 50 47 43 40 38
25 21 17 16 19 28 21 19 35 34 33 34 35 38 38 32 30 34 36 35 33 33 33 35 37 42 47 49 51 52 52 52 52 53 53 53 50 46 43 39 37 36 35 34
26 21 19 25 22 23 29 26 33 33 36 38 38 36 37 43 43 42 43 44 40 40 37 39 43 44 48 50 51 51 52 52 53 51 48 45 42 39 37 35 34 32 31 31
27 23 23 22 22 25 26 32 34 34 34 36 36 39 42 42 43 46 47 46 46 44 42 44 46 48 49 51 50 48 47 45 44 43 41 39 37 35 33 31 30 30 30 30
27 26 23 24 30 28 33 33 33 35 35 34 37 40 42 41 44 47 46 47 46 47 47 49 50 50 46 44 43 42 41 39 38 37 36 35 34 33 32 30 29 29 28 28
26 26 29 31 32 32 31 32 33 35 33 35 37 39 43 43 46 46 46 46 47 47 48 47 46 43 40 38 37 36 35 35 35 34 34 33 32 31 30 30 29 28 27 27
26 25 25 27 25 26 25 30 31 32 35 35 34 39 45 47 45 44 43 43 43 43 42 41 41 39 37 36 35 34 32 32 31 30 30 30 30 30 30 29 28 28 27 27
24 24 24 25 25 26 26 32 32 36 35 37 39 45 46 42 39 37 38 37 38 38 37 38 37 36 35 35 34 32 31 30 29 28 27 27 27 27 28 30 32 30 31 29
26 26 29 27 28 31 31 32 35 35 36 43 43 42 40 37 36 34 33 34 36 36 36 37 37 36 36 36 33 32 30 29 28 27 26 26 25 26 29 28 29 28 26 25
27 27 28 31 31 31 31 35 35 35 39 41 38 37 36 35 33 32 30 29 29 30 31 32 33 33 34 35 34 32 31 29 29 28 28 26 25 23 22 24 25 23 22 21
28 28 28 28 30 31 32 36 35 35 36 35 35 34 34 33 31 31 29 29 28 27 27 27 27 27 30 31 31 31 31 32 32 31 30 30 28 26 24 22 19 18 18 17
29 35 35 34 34 33 35 35 34 33 34 32 31 30 28 26 26 26 27 27 26 25 25 24 24 25 28 29 29 29 30 29 30 29 28 27 26 25 23 21 18 17 15 13
35 34 34 34 35 35 35 34 34 33 33 31 28 27 26 24 21 21 23 23 22 21 23 23 23 25 27 27 27 26 25 24 23 23 23 22 21 20 19 18 15 13 11 11
34 33 34 33 34 34 35 35 34 33 32 30 25 23 21 21 19 19 20 21 21 22 23 23 23 26 27 26 22 19 19 18 20 19 18 17 17 16 15 15 13 11 10 11
32 32 32 33 33 33 34 36 33 32 30 27 24 23 21 20 18 17 18 19 20 20 22 24 23 21 19 17 16 16 16 15 15 15 15 16 14 14 14 13 12 11 10 8
29 29 30 29 30 32 32 31 30 28 26 25 22 20 20 19 19 19 20 19 19 18 20 17 17 14 12 14 13 13 14 13 12 11 13 13 14 12 13 13 12 12 10 10
26 26 27 26 27 28 26 26 26 24 23 21 20 19 18 17 17 17 17 17 18 16 10 8 7 7 8 10 13 12 14 15 12 14 14 13 13 12 11 9 10 11 12 11
25 24 24 23 23 23 23 23 21 20 21 20 16 15 16 16 17 17 15 13 15 10 5 7 5 5 6 9 10 15 15 15 14 12 12 13 12 11 12 11 11 11 10 10
23 22 21 21 20 19 20 20 18 17 16 14 14 14 13 13 13 13 16 14 9 9 7 7 7 8 8 11 11 14 12 12 12 13 12 12 11 10 10 9 9 9 9 8
23 22 21 19 19 19 19 18 18 18 17 17 17 17 17 16 14 11 9 8 6 7 7 9 9 9 10 14 13 12 12 11 11 10 11 10 10 9 8 7 8 7 6 5
21 20 20 20 20 17 16 16 16 16 16 16 16 15 13 11 11 11 10 9 8 8 9 9 9 8 9 12 12 11 11 10 9 9 7 6 8 7 6 5 4 6 5 3
20 20 20 19 17 16 16 16 14 14 14 13 12 13 13 13 10 10 9 8 6 6 7 5 6 7 11 10 10 10 10 10 9 9 8 7 6 6 6 5 3 3 3 3
21 20 19 20 18 17 17 15 13 13 11 10 10 11 11 10 9 9 8 7 6 6 8 8 9 9 8 8 8 7 7 6 6 5 5 5 4 4 3 2 2 3 3 2
18 18 17 16 17 17 16 15 13 12 12 11 9 9 8 8 8 7 7 8 7 7 8 8 7 6 7 7 6 6 6 5 1 3 4 4 4 4 2 2 2 1 1 0

GFSNGP_sfc_dewp_096.txt.gz
Dewpoint
13 13 13 13 18 20 22 25 24 24 22 23 25 25 25 27 29 28 27 27 31 39 44 46 50 52 52 52 53 52 52 53 55 56 56 57 56 56 56 56 55 55 55 55
18 14 11 13 13 14 14 15 15 20 21 23 24 24 25 26 26 26 27 26 26 30 38 45 47 51 52 53 53 52 52 52 54 55 55 56 56 56 56 56 56 56 56 55
20 19 15 18 16 11 10 9 11 13 18 21 22 23 26 30 31 29 28 27 26 33 36 43 48 50 51 53 54 53 52 52 52 54 55 55 56 56 56 56 55 52 45 42
24 23 17 19 12 12 15 15 15 26 18 13 21 31 32 35 41 42 43 42 43 40 38 39 41 48 51 52 53 54 53 53 53 53 54 54 55 55 51 47 43 39 37 36
22 20 17 16 16 19 28 26 34 33 34 36 37 37 33 40 41 42 44 47 47 46 44 44 39 39 48 50 51 53 53 53 53 53 53 53 50 44 41 39 36 35 34 34
27 21 18 24 22 22 25 26 33 33 33 35 35 35 34 39 41 41 44 46 46 47 46 45 42 44 44 48 51 52 53 53 53 52 48 43 40 38 36 34 32 32 31 32
27 26 24 25 23 26 22 32 34 34 35 34 32 35 38 40 41 41 45 46 47 47 47 47 48 46 49 50 49 48 46 44 44 43 39 37 35 34 32 31 31 30 30 31
28 25 23 24 23 27 32 32 30 32 36 36 37 37 37 36 42 44 45 45 46 47 48 48 47 47 44 43 43 42 40 38 37 36 35 34 33 32 31 30 29 28 28 28
25 25 30 30 34 35 31 28 29 34 32 34 35 34 35 42 45 45 44 43 44 44 45 44 43 42 39 38 38 38 37 35 34 33 33 32 31 31 30 30 28 28 27 26
34 31 30 34 34 35 26 26 29 32 34 32 33 38 42 45 43 40 39 38 39 41 40 39 39 38 37 36 35 34 33 32 32 31 31 31 31 31 30 29 28 28 28 27
33 26 27 27 31 33 32 31 30 36 34 35 43 43 43 40 39 37 35 36 37 37 37 36 36 35 35 34 33 31 30 30 29 28 28 28 28 29 29 30 30 28 26 25
30 31 31 31 30 31 30 31 36 35 35 40 40 39 38 35 34 32 31 29 29 29 31 35 36 35 35 34 32 30 28 28 28 27 26 25 23 24 28 27 27 27 27 25
32 28 29 30 28 31 32 34 35 35 38 38 37 37 35 33 32 31 29 27 26 27 27 27 29 31 33 33 32 30 28 27 26 26 24 23 22 21 19 23 25 25 24 21
28 31 31 34 32 32 34 36 36 35 35 36 34 33 31 30 30 29 28 29 29 28 27 27 27 28 31 32 31 31 30 29 28 27 25 24 23 22 21 18 17 16 17 17
35 35 34 33 34 34 35 34 34 34 34 32 30 29 28 26 25 25 25 26 26 25 25 26 26 26 29 29 28 28 28 28 29 29 28 27 25 23 21 19 17 17 18 17
34 34 33 34 33 33 33 34 35 34 34 30 28 25 23 23 22 22 23 24 23 22 24 25 25 26 28 27 26 26 26 27 26 25 25 24 22 19 17 15 13 13 13 14
31 31 32 32 32 33 32 33 35 34 33 28 25 23 21 21 20 20 21 22 23 23 24 24 24 26 26 26 25 24 24 23 22 20 19 19 17 16 15 12 10 10 10 12
30 30 30 30 30 31 32 32 32 31 28 26 23 23 21 19 18 19 20 21 21 21 23 23 24 25 25 24 23 20 18 17 17 17 17 17 16 15 15 13 10 9 10 11
27 27 27 27 28 30 29 28 28 26 25 24 21 19 19 19 19 20 20 19 18 17 19 19 19 15 14 16 15 15 16 15 14 14 15 15 15 14 14 13 12 11 11 10
24 24 25 24 24 26 26 26 25 23 22 20 20 18 16 16 17 16 16 15 17 18 13 10 10 11 12 14 16 16 17 16 14 14 14 12 12 11 11 10 11 11 11 10
25 23 23 22 22 22 23 23 22 20 20 19 16 16 15 17 16 16 14 11 15 11 8 10 10 11 12 14 14 16 16 15 14 13 13 12 12 11 11 10 10 10 10 9
23 22 20 20 19 19 19 19 18 17 16 15 15 15 14 14 14 14 15 13 15 15 12 11 12 13 13 14 14 15 14 14 14 13 13 12 11 10 9 9 8 9 8 8
23 22 20 19 18 18 18 18 18 18 17 17 17 17 16 15 15 11 8 13 14 13 13 14 14 14 14 15 14 14 13 12 12 11 11 10 10 9 6 7 7 6 5 3
20 20 20 19 19 16 14 15 16 16 15 15 14 14 12 10 10 11 11 11 11 11 11 12 13 14 13 14 13 12 11 10 10 9 9 7 8 7 5 3 3 6 3 0
19 19 19 18 15 14 15 15 14 13 13 12 12 13 13 13 10 10 10 10 11 9 10 11 11 11 12 12 12 11 10 10 10 9 8 7 6 5 6 3 2 -0 -1 0
20 18 19 19 18 18 17 15 13 12 11 10 10 11 12 12 12 10 10 10 10 10 10 11 10 10 10 10 9 9 8 6 6 6 5 5 4 4 1 -0 -1 0 0 -1
18 18 17 17 18 17 16 15 13 12 12 11 9 11 11 11 10 10 9 10 10 10 9 9 9 9 9 9 8 8 5 2 -1 5 5 4 3 3 -1 -1 -0 -2 -3 -4

GFSNGP_sfc_dewp_102.txt.gz
Dewpoint
23 22 21 21 16 20 31 30 26 27 28 35 36 37 41 41 42 42 45 45 45 46 51 50 54 54 55 54 54 55 54 53 53 55 55 55 54 54 53 53 53 53 52 52
23 23 24 22 21 19 22 27 24 19 15 25 35 39 41 40 40 41 45 44 44 44 45 47 49 53 54 55 55 55 54 54 54 54 55 55 54 54 54 54 53 53 52 52
23 26 24 19 21 19 17 21 23 17 33 31 38 38 38 38 40 42 43 43 44 44 46 48 49 50 50 54 55 54 54 55 55 55 55 55 55 54 54 54 54 55 53 49
24 24 17 22 23 22 31 33 32 33 32 35 37 37 38 38 40 44 44 45 45 45 47 48 47 47 49 53 54 55 54 54 55 55 54 55 55 54 54 51 47 43 40 38
21 22 23 19 27 27 29 32 34 33 33 33 35 36 35 37 44 45 45 45 44 45 47 46 45 45 45 46 49 54 53 53 55 55 55 55 54 53 44 41 40 38 36 35
24 19 17 26 30 31 29 31 35 35 35 34 34 32 33 41 45 45 44 43 43 43 44 44 43 43 43 44 44 45 48 54 55 55 55 53 46 42 39 38 35 34 33 33
22 21 26 29 29 31 22 27 35 34 33 34 33 35 36 45 44 42 41 40 40 41 42 41 41 42 41 41 41 42 44 47 47 47 45 42 39 37 35 33 32 31 31 32
23 20 19 29 31 28 33 34 33 34 35 35 34 39 44 42 39 37 37 37 38 39 40 39 38 40 39 38 39 39 40 40 41 42 39 37 35 34 33 32 31 31 30 30
25 24 30 32 35 40 36 32 34 33 33 37 41 43 43 39 37 36 35 35 35 38 38 37 37 37 37 37 37 37 36 36 36 35 35 34 33 32 31 32 30 29 28 27
29 31 36 38 37 37 35 36 35 37 42 43 42 40 38 37 35 32 31 31 31 33 36 35 35 34 34 34 35 34 33 33 33 32 32 32 31 31 30 29 28 27 26 25
35 37 37 38 38 38 37 38 41 40 39 39 38 37 36 34 32 30 29 29 29 30 31 34 33 33 32 32 31 29 29 28 27 27 27 27 27 27 27 28 27 25 25 25
33 39 38 39 42 39 37 38 40 38 36 36 36 35 34 32 30 28 28 28 28 29 30 31 31 31 31 31 29 28 26 26 26 25 26 26 26 26 28 27 27 27 27 26
38 41 40 37 36 37 37 37 37 36 35 34 33 31 31 29 28 28 27 27 27 28 29 30 30 29 30 30 28 26 24 24 24 23 23 23 23 23 22 26 27 27 28 28
38 40 37 35 33 34 36 35 35 33 32 31 29 28 27 24 25 25 25 26 26 26 25 25 26 28 29 29 28 26 25 25 24 23 22 21 20 20 20 19 19 22 26 24
33 33 33 33 32 32 33 34 34 31 29 27 26 25 25 24 24 24 26 26 26 24 24 24 24 26 28 29 27 26 25 23 22 21 21 20 20 19 19 18 18 17 18 19
30 29 29 30 30 30 31 30 31 29 27 25 24 23 23 22 22 22 23 23 22 21 22 23 23 25 27 27 26 25 24 24 22 21 20 19 19 18 18 17 15 14 13 12
28 27 27 27 27 28 29 29 30 28 26 25 23 22 21 20 20 20 21 22 22 21 21 22 23 25 25 25 25 24 22 22 21 19 18 17 16 15 15 14 14 12 12 12
25 25 24 24 24 27 27 27 27 26 24 23 22 22 21 20 18 18 19 19 19 19 20 21 22 22 23 23 23 22 22 21 19 17 16 15 14 13 13 12 11 10 10 10
23 23 22 21 21 24 24 24 24 23 22 21 20 19 19 19 18 18 19 18 17 16 19 22 23 22 21 21 20 20 19 18 17 13 12 12 12 11 11 11 10 9 8 7
20 20 21 20 19 20 20 22 22 21 21 20 18 16 15 16 16 16 16 15 17 18 20 20 20 20 20 19 19 17 16 15 14 13 13 12 11 10 8 7 7 5 3 3
18 18 18 17 16 16 16 17 17 17 18 17 15 13 12 14 15 15 13 11 16 19 19 19 19 18 18 17 16 15 14 13 13 11 10 9 8 6 5 4 3 2 2 2
13 12 11 12 12 12 14 14 14 13 13 12 11 11 10 10 11 11 13 13 15 17 17 17 17 17 16 16 15 14 13 12 11 10 9 8 7 5 3 2 1 -1 -2 -7
11 12 10 8 8 8 9 10 10 10 9 9 10 10 10 11 12 9 8 14 15 15 15 15 14 14 14 13 13 12 11 10 9 8 6 5 4 3 1 -1 -6 -5 -8 -10
10 11 11 12 11 9 6 9 10 11 10 10 10 11 10 8 9 12 12 13 13 13 13 13 13 13 11 11 10 10 9 8 7 6 5 3 2 1 -1 -5 -8 -11 -11 -10
11 8 8 8 8 9 10 10 9 9 9 9 9 10 11 11 9 10 11 11 13 11 10 10 10 9 9 8 8 8 8 7 6 5 4 2 -1 -3 -6 -6 -11 -11 -13 -16
16 15 12 10 13 11 11 10 8 9 8 7 8 9 10 10 11 10 10 10 10 9 9 9 10 9 8 6 5 5 5 5 4 3 1 -1 -3 -5 -7 -9 -10 -12 -17 -20
13 11 11 12 13 13 11 10 8 8 9 8 7 9 9 9 10 10 8 8 7 8 8 8 8 8 6 4 3 3 2 2 -0 -0 -3 -6 -10 -13 -13 -15 -15 -17 -19 -19

GFSNGP_sfc_dewp_105.txt.gz
Dewpoint
28 24 28 29 22 21 29 30 25 24 21 31 38 37 41 43 45 45 45 43 44 45 50 51 52 55 55 54 54 54 53 53 54 55 55 54 53 53 52 53 52 51 52 52
27 27 24 27 27 23 24 30 32 33 19 33 40 39 39 42 46 45 46 45 44 44 47 49 49 50 51 55 55 55 54 53 54 55 55 54 54 53 52 53 53 52 52 52
21 26 24 20 25 23 25 28 32 30 32 38 37 37 39 41 43 44 45 45 44 44 46 46 46 47 48 49 54 55 55 54 54 54 54 54 54 54 53 52 53 52 51 51
25 24 12 23 27 30 33 32 30 34 37 36 35 37 37 41 44 44 44 44 43 45 46 45 44 44 46 47 51 55 55 55 55 54 54 54 54 54 54 54 52 50 45 42
23 22 20 22 30 26 32 32 36 32 37 37 35 38 40 44 45 44 44 43 43 44 45 43 42 43 43 45 46 48 54 54 55 55 55 54 54 53 51 47 44 41 39 37
24 19 13 20 28 32 34 30 36 37 37 35 36 32 36 45 43 42 40 40 39 41 42 40 40 41 43 42 43 43 45 49 54 55 55 54 54 46 41 41 37 35 34 34
22 19 23 28 30 31 24 29 37 36 35 35 33 34 42 43 39 38 37 37 38 39 38 37 38 39 40 40 39 41 42 44 45 52 54 51 45 43 38 35 34 32 31 32
21 19 17 28 32 26 32 34 35 34 35 35 41 43 41 38 36 35 34 33 34 36 36 36 36 37 37 37 38 38 38 38 39 40 42 43 40 36 35 33 31 30 30 30
23 22 27 35 35 39 36 32 34 33 36 42 42 39 38 36 34 32 31 32 32 34 35 35 34 34 34 35 36 36 35 35 35 35 35 36 36 35 33 33 32 30 28 27
25 26 34 37 38 39 38 36 41 42 42 39 38 37 35 34 32 30 30 30 30 31 32 33 33 33 33 33 33 32 32 32 33 32 32 32 32 32 31 30 29 27 27 26
33 37 37 39 40 39 40 39 38 37 37 37 36 35 34 32 30 29 28 28 29 30 31 31 32 31 32 31 30 29 28 28 27 28 27 27 28 28 28 28 28 26 26 26
31 36 38 39 39 41 39 39 37 35 34 34 34 33 31 30 28 27 27 27 28 28 29 29 28 28 30 30 28 28 27 26 27 27 27 26 26 27 29 29 29 29 29 28
34 39 38 36 37 37 36 35 35 34 33 31 30 29 28 27 24 24 24 25 25 25 25 26 26 26 27 28 27 26 25 25 25 25 26 26 25 24 23 27 30 30 30 30
38 37 35 35 33 35 35 32 32 30 30 28 27 26 25 23 21 24 24 25 24 21 20 24 26 26 25 26 25 25 24 24 23 23 23 23 23 23 23 21 21 22 27 27
31 31 33 31 30 31 31 32 31 29 27 25 25 25 24 23 24 24 22 17 16 18 18 19 21 25 25 24 22 22 21 20 21 21 21 21 21 21 20 19 19 19 19 20
30 30 28 27 27 29 29 29 30 28 26 24 23 23 22 22 21 22 22 21 19 19 19 19 20 24 24 25 23 22 22 22 21 20 20 20 19 18 17 16 14 14 12 12
26 25 24 24 24 25 27 28 28 27 26 24 23 22 21 20 19 19 19 19 18 19 20 19 19 22 23 23 22 21 20 19 19 18 18 18 18 17 16 14 12 11 10 10
24 23 22 21 21 23 24 24 25 25 24 23 22 16 12 11 13 17 18 19 19 18 19 21 22 21 22 23 22 21 19 18 17 16 16 16 15 14 13 12 10 9 8 8
20 21 20 19 19 21 21 21 22 23 22 22 20 18 16 14 16 17 18 17 16 15 18 21 23 21 21 21 21 20 18 16 15 15 14 13 13 12 11 10 9 8 7 6
17 18 18 17 16 17 17 18 19 18 20 19 17 16 15 13 14 14 14 13 16 18 19 19 19 18 18 19 18 17 16 15 14 13 13 11 10 9 9 7 6 4 3 2
17 16 15 15 14 14 13 15 13 14 14 16 14 13 12 11 11 11 11 11 15 18 18 18 18 17 17 17 16 15 14 13 12 11 10 9 8 7 6 5 4 3 3 1
10 10 8 9 10 9 11 12 13 11 10 10 9 9 9 9 10 11 12 12 15 15 15 15 15 16 16 16 14 13 12 11 11 10 9 8 7 5 4 3 2 1 -2 -5
9 10 7 6 6 5 8 8 8 7 7 7 7 8 9 10 11 9 8 14 15 14 14 13 13 12 12 12 11 10 9 9 8 7 7 6 5 4 3 0 -0 -2 -6 -7
6 7 6 7 7 6 4 6 8 8 7 8 8 9 10 8 9 12 13 12 12 12 12 12 12 11 11 10 10 9 8 7 6 5 5 3 3 1 -1 -3 -6 -7 -8 -9
8 5 4 5 6 6 6 6 7 7 7 7 8 10 10 11 9 10 11 11 12 10 9 10 10 9 8 8 8 7 7 6 5 4 3 2 1 -1 -2 -4 -7 -8 -10 -11
14 10 6 6 7 6 7 6 5 5 6 6 7 8 9 10 10 10 10 9 9 9 9 9 8 7 6 5 6 6 6 5 4 3 1 -0 -3 -5 -6 -6 -7 -8 -13 -17
10 10 10 10 11 9 6 4 2 5 7 5 6 9 9 9 9 8 8 8 7 7 7 7 7 5 5 4 4 4 3 3 2 1 -1 -2 -3 -5 -5 -8 -11 -14 -18 -17

GFSNGP_sfc_dewp_108.txt.gz
Dewpoint
25 26 27 30 33 27 29 27 21 26 23 27 39 41 42 44 45 45 45 46 45 46 46 47 49 52 55 54 54 53 53 54 55 55 54 54 53 52 52 53 54 54 54 54
24 21 19 28 30 32 27 30 32 30 30 39 40 42 44 46 45 44 45 46 46 46 45 45 45 47 48 50 54 54 53 53 54 55 54 54 54 53 52 52 52 52 53 53
19 25 23 23 27 27 28 28 30 25 33 38 39 41 43 43 44 44 45 44 43 45 46 43 43 44 45 47 49 54 54 53 53 54 55 54 54 53 52 52 53 52 51 50
24 25 9 20 30 28 30 32 30 33 37 38 38 39 43 44 44 44 43 42 42 42 44 41 41 41 43 45 46 48 54 54 54 54 54 54 54 54 53 52 52 52 50 49
22 21 19 23 28 28 29 32 35 36 38 40 43 43 43 44 44 42 40 39 39 41 40 38 38 40 42 43 43 44 45 50 55 55 54 54 54 54 53 52 50 47 45 43
24 18 15 20 26 29 35 30 39 38 37 40 40 36 40 41 40 38 37 37 37 39 38 37 37 37 39 40 40 40 41 43 46 49 54 53 53 53 46 47 40 37 35 35
22 21 22 25 28 31 26 27 38 37 39 39 32 36 41 38 36 36 34 34 35 37 35 35 35 36 37 37 37 38 39 39 40 42 50 54 52 45 42 37 34 32 32 32
20 18 16 26 30 28 33 37 39 36 36 41 41 39 38 36 34 32 32 33 33 34 34 34 33 34 34 34 34 36 36 36 36 37 38 43 44 40 37 35 32 31 30 30
24 21 25 32 35 37 38 33 37 35 43 43 40 38 36 34 32 31 31 30 31 32 32 32 32 32 32 32 32 33 33 33 33 33 34 35 36 35 34 34 32 30 29 28
29 29 34 38 39 39 41 41 41 40 40 38 37 35 34 32 30 29 29 29 29 30 30 30 30 30 31 30 30 29 28 28 29 29 30 31 32 32 32 32 31 29 28 27
31 35 37 38 38 41 39 37 36 36 36 36 34 32 32 30 29 28 28 28 29 29 29 27 27 28 29 29 29 28 28 28 27 28 28 28 28 28 28 30 31 28 27 27
31 37 37 36 37 40 37 36 35 33 32 32 32 31 30 28 27 27 26 26 26 26 26 27 25 25 26 27 27 27 26 27 27 27 27 27 27 27 31 30 30 30 30 28
33 36 35 36 35 35 34 33 33 32 30 28 28 28 27 25 25 26 26 25 24 24 24 25 25 25 25 26 26 25 25 25 26 26 26 25 25 25 25 28 30 30 30 28
34 35 33 32 31 34 35 32 30 28 28 27 26 25 24 23 25 24 24 24 23 19 21 24 24 21 21 19 20 20 21 22 23 24 24 23 23 23 23 22 21 23 27 27
34 33 32 32 31 30 30 32 29 27 26 24 24 23 23 23 23 23 24 22 19 19 18 23 22 20 19 17 19 19 19 20 21 21 21 21 21 21 20 19 18 18 18 19
28 25 25 24 24 26 27 28 28 27 26 24 23 22 21 21 21 21 20 20 19 17 16 19 21 20 19 16 19 19 20 20 20 20 19 18 18 16 16 15 14 13 12 12
24 23 22 20 21 22 24 25 26 27 25 23 22 21 20 18 17 17 18 17 15 14 14 15 19 19 17 18 17 17 18 18 18 18 17 17 16 15 14 12 10 9 9 10
21 21 21 19 18 20 20 21 22 22 22 22 20 19 17 14 12 12 12 18 16 14 17 18 19 20 20 19 19 18 17 17 17 16 16 15 14 14 12 11 9 7 7 8
17 18 18 16 16 18 18 18 19 21 21 21 19 17 17 16 15 14 13 11 8 11 16 19 21 20 19 20 18 17 16 15 14 14 14 13 12 11 10 9 8 7 6 5
16 15 15 15 14 14 14 15 16 15 18 18 17 16 14 14 14 11 12 11 13 16 18 18 17 17 17 18 18 17 16 15 13 12 12 10 9 8 7 6 5 4 3 2
13 13 12 13 11 11 10 13 13 12 11 11 12 12 11 11 11 11 11 10 13 17 16 16 16 16 16 16 15 14 13 11 10 9 9 7 7 6 5 4 3 2 1 -0
7 6 4 5 7 5 8 9 9 8 7 7 8 8 8 8 10 10 12 11 14 14 14 14 14 14 14 14 12 11 10 9 9 8 7 6 5 3 4 3 2 1 -0 -1
8 9 7 4 3 4 6 6 6 6 6 7 7 7 8 9 10 9 8 13 14 12 12 12 12 12 10 10 9 8 7 7 6 5 5 4 4 3 2 1 1 -0 -2 -3
5 7 3 5 6 5 3 4 5 6 5 7 7 7 9 7 9 11 12 10 10 10 10 10 11 10 9 8 7 6 5 5 4 4 3 2 2 1 0 -1 -2 -4 -4 -4
6 3 3 3 5 3 3 3 3 2 3 5 7 9 10 10 7 9 9 10 11 8 8 8 9 8 7 6 6 5 5 5 4 4 3 2 0 -0 -1 -1 -3 -4 -5 -5
10 6 4 5 5 5 5 4 2 1 2 1 4 4 7 9 9 9 9 9 9 8 7 7 6 5 5 5 4 4 4 4 3 3 2 1 -0 -1 -1 -2 -4 -6 -8 -9
7 9 7 6 7 5 3 1 0 3 3 1 2 6 6 7 7 7 7 7 7 7 6 6 5 5 4 4 3 3 3 3 2 1 0 -0 -1 -2 -3 -4 -5 -7 -9 -12

GFSNGP_sfc_dewp_111.txt.gz
Dewpoint
28 23 26 29 30 31 28 26 15 15 22 35 38 40 41 45 45 45 44 45 45 47 46 45 45 46 49 53 55 55 56 55 55 55 55 55 55 55 55 56 55 55 55 55
27 25 19 21 30 30 25 31 30 30 32 39 41 43 44 44 43 45 45 45 45 47 45 43 43 43 44 46 48 53 54 55 55 55 55 55 55 54 54 55 55 55 55 54
16 23 23 19 28 29 27 28 29 26 34 41 42 44 43 43 44 43 42 42 41 42 42 41 41 42 43 45 47 49 54 54 55 55 55 55 55 54 53 54 54 54 54 54
22 23 14 17 31 28 28 30 31 35 38 40 42 43 44 44 43 41 40 39 39 40 38 38 39 40 42 43 44 46 46 51 54 55 55 55 55 54 54 54 53 53 52 52
21 19 17 25 26 27 27 31 35 36 39 42 42 40 41 41 40 39 38 37 38 38 37 36 36 38 40 39 40 41 41 42 44 47 54 55 55 54 55 54 54 53 52 51
19 18 13 19 23 28 32 28 39 39 41 39 39 37 40 39 38 36 35 35 36 36 35 34 34 36 37 36 37 37 38 40 41 43 45 53 55 55 54 53 51 45 42 44
20 19 19 23 25 33 25 29 40 41 42 41 38 38 38 36 34 34 34 34 34 35 34 33 33 34 34 34 34 36 36 37 37 38 40 43 53 51 49 42 38 36 35 36
22 20 14 27 30 30 35 39 38 39 39 41 40 37 36 34 33 33 32 31 31 33 32 32 32 32 32 31 31 33 33 34 34 34 36 38 41 40 39 37 34 32 31 31
23 21 28 38 38 40 39 37 39 41 42 41 39 36 34 33 32 31 30 30 30 30 30 30 30 31 30 30 30 30 30 30 30 31 32 33 35 35 34 34 33 31 30 28
30 31 34 38 40 39 39 39 41 41 39 37 35 34 33 31 30 29 29 29 29 29 28 27 27 27 28 29 29 28 28 28 29 29 29 30 31 32 33 32 31 29 28 28
31 32 36 35 38 37 36 36 35 35 35 34 33 32 31 30 28 28 28 27 27 26 27 26 26 26 26 27 28 27 28 28 28 28 28 28 29 30 30 31 31 28 28 28
28 33 35 32 34 37 36 36 34 32 32 32 32 30 29 28 27 26 26 25 25 25 25 25 23 24 25 26 27 27 27 27 27 27 28 28 27 28 31 30 30 30 29 27
31 35 33 35 34 35 34 34 32 32 30 28 28 28 27 27 27 27 26 25 24 24 24 24 23 22 23 24 25 26 27 26 26 26 27 27 26 25 24 28 29 29 28 28
33 33 30 30 30 32 35 32 32 27 27 26 26 25 26 26 25 25 24 23 22 22 23 24 21 21 22 23 22 23 24 24 25 25 24 24 25 25 24 22 22 23 27 27
30 30 30 30 30 31 32 34 28 26 25 24 23 23 23 23 23 23 23 21 21 19 21 22 20 21 21 21 22 23 24 24 25 24 24 22 22 21 20 18 18 19 19 20
26 23 21 21 22 24 26 27 27 27 25 23 22 21 21 20 19 20 20 19 20 19 18 19 20 21 21 21 22 23 22 21 22 22 22 22 21 20 19 17 16 15 15 15
21 20 20 18 18 20 21 22 23 24 24 23 22 21 19 18 18 18 19 19 19 19 20 20 21 21 21 20 21 21 21 21 20 20 20 19 19 17 17 15 14 13 12 14
18 18 17 16 17 18 18 18 20 21 21 21 21 20 18 18 17 17 17 17 17 18 20 21 22 21 21 21 20 20 20 19 19 19 18 18 17 16 15 14 12 10 10 10
15 14 15 13 14 16 16 16 18 19 21 21 19 18 18 18 17 16 17 16 16 16 18 20 21 21 20 20 19 19 19 19 17 16 16 15 16 14 14 13 12 11 9 8
13 12 13 13 12 13 13 15 16 15 16 18 18 16 15 15 15 15 16 15 16 17 18 19 19 19 19 19 20 19 18 18 16 16 16 15 14 13 12 9 9 9 8 7
12 12 11 11 10 10 10 12 12 12 11 12 14 12 12 13 14 14 14 13 15 17 17 17 17 17 17 17 17 18 18 16 15 14 14 13 12 11 10 9 9 8 7 5
10 9 7 8 8 7 8 9 10 9 9 9 10 10 11 12 12 12 13 13 14 15 15 15 15 15 15 16 15 16 14 14 13 12 12 11 10 9 9 8 7 7 6 5
11 10 8 6 6 7 6 7 7 8 7 8 9 10 11 12 13 12 11 14 14 13 14 14 13 12 12 14 14 13 12 12 11 11 11 10 10 9 8 7 6 6 5 4
9 9 8 8 8 7 6 7 8 8 8 10 9 10 11 11 12 12 12 11 11 12 13 13 12 11 11 12 12 11 11 11 10 10 9 7 9 8 7 6 5 5 4 3
10 8 8 8 7 7 7 8 7 7 7 9 9 10 11 12 11 11 12 12 12 11 11 10 9 9 11 11 11 10 10 10 10 9 9 8 7 7 7 5 5 4 3 2
12 10 9 9 9 8 8 7 6 7 7 7 8 10 11 11 11 11 11 10 10 10 10 10 10 10 10 9 9 9 8 8 8 7 7 7 6 5 5 4 3 3 2 1
11 10 9 8 9 9 8 7 7 7 7 8 8 10 9 10 10 9 9 10 9 9 9 9 8 7 7 7 7 6 6 6 5 5 5 5 5 5 4 3 3 2 1 -0

GFSNGP_sfc_dewp_114.txt.gz
Dewpoint
27 26 20 26 31 32 27 17 15 12 9 21 32 38 42 43 43 43 43 45 44 45 45 44 44 45 45 48 50 54 55 55 55 56 56 56 57 57 57 58 57 57 57 56
20 24 22 19 28 27 29 29 20 18 13 17 31 39 41 41 42 43 42 42 43 43 42 42 42 43 44 45 47 50 53 55 55 55 54 56 56 56 57 57 57 57 56 56
16 18 23 22 28 25 24 26 28 26 25 36 35 39 42 42 43 42 41 41 41 40 39 40 41 42 44 44 46 47 48 54 56 54 54 54 55 55 55 56 56 56 56 56
19 18 18 21 28 26 25 26 30 29 34 40 41 42 42 43 42 40 39 39 39 38 38 38 38 41 42 42 42 42 42 44 45 51 55 55 55 54 55 55 56 56 56 56
18 17 12 24 22 28 28 28 35 32 38 41 41 40 39 39 39 38 38 38 38 37 36 36 36 38 39 38 40 38 38 40 41 43 46 50 55 55 55 55 55 55 55 55
18 14 13 22 22 25 31 32 38 37 39 39 38 37 40 38 37 36 36 36 36 36 34 33 34 36 35 36 36 36 36 38 39 39 41 44 46 55 55 55 55 54 52 51
20 17 14 25 28 31 29 33 40 41 40 38 38 40 40 36 35 35 34 33 34 34 32 32 33 34 33 33 33 33 35 35 36 36 37 40 42 48 53 50 44 40 36 36
23 20 15 28 29 30 34 39 42 41 41 40 40 38 36 35 34 33 32 32 32 32 31 30 30 31 30 31 31 32 32 32 33 34 35 36 39 39 40 40 36 34 33 32
24 21 29 33 36 40 40 39 42 40 40 41 39 36 34 33 32 31 31 31 31 30 29 28 28 28 28 30 30 30 31 31 31 32 33 33 35 35 35 35 33 32 31 30
32 35 35 35 37 38 38 40 42 41 39 38 36 34 32 30 29 30 29 29 28 28 27 27 26 26 27 28 30 29 29 29 30 30 31 31 32 33 33 32 31 30 29 28
31 31 33 32 34 37 37 36 34 34 34 33 33 31 30 30 29 29 28 27 27 27 26 24 25 24 26 27 29 28 29 29 29 30 30 30 30 31 31 32 31 29 28 27
28 33 33 31 34 35 33 34 36 32 31 31 31 30 30 29 29 28 27 26 26 26 25 24 23 23 25 26 28 28 27 27 28 28 28 28 27 27 30 29 29 28 27 26
30 35 33 34 33 36 33 33 33 32 33 28 29 29 29 29 29 28 28 26 25 25 25 24 24 24 25 26 27 29 28 27 27 27 27 26 26 25 24 27 28 27 27 26
33 33 32 31 30 33 35 35 34 29 29 29 28 27 27 28 28 27 25 25 25 25 24 24 24 23 25 27 27 27 28 28 28 27 27 27 26 26 25 24 23 24 27 27
27 27 29 31 32 31 31 33 30 27 26 25 25 25 25 25 25 25 25 24 25 23 23 23 23 23 25 26 26 27 27 27 27 27 26 25 25 24 23 22 22 22 23 24
26 22 21 20 22 23 25 26 26 26 25 24 23 22 22 23 22 22 22 22 23 23 22 23 22 23 24 26 26 26 26 25 25 26 25 25 25 24 23 23 23 22 22 22
20 19 18 17 18 19 20 22 24 24 24 24 22 21 20 20 21 21 22 22 23 23 23 23 22 23 24 25 27 25 25 24 24 24 24 24 23 23 22 22 21 20 20 21
17 17 16 16 16 17 18 19 20 21 22 22 22 22 22 21 21 20 21 21 22 22 22 23 23 23 23 24 24 24 24 23 23 23 24 24 23 22 21 20 19 17 17 15
14 14 14 13 14 16 17 18 19 20 21 22 21 21 20 20 20 20 21 20 21 22 21 22 21 22 22 22 22 23 24 24 22 21 21 21 22 21 21 21 19 18 15 15
12 12 13 13 13 15 15 16 18 18 18 20 19 19 18 18 18 19 19 18 19 19 20 20 21 21 21 21 22 22 24 24 21 22 23 21 21 20 18 15 15 16 16 15
14 13 13 13 13 13 13 15 15 15 15 16 17 16 16 17 17 18 20 17 18 18 19 19 19 19 19 20 20 24 24 23 23 22 21 20 19 17 17 16 16 15 14 13
14 13 11 11 12 11 12 13 13 13 14 14 14 15 16 17 17 17 17 18 17 18 18 18 17 17 18 20 21 22 21 21 20 20 19 18 17 17 16 15 14 14 14 13
15 14 12 11 11 11 11 12 12 12 12 13 13 15 15 16 17 17 16 17 17 17 17 17 16 16 18 22 21 21 19 18 18 17 17 17 17 16 15 14 13 13 12 11
14 13 12 12 12 12 12 12 13 13 12 13 13 13 16 17 17 16 15 14 14 16 16 16 16 16 17 19 18 18 18 18 17 17 15 13 15 14 13 12 12 12 10 9
13 13 12 12 11 11 11 12 11 12 12 13 13 14 14 15 16 15 16 15 14 15 16 13 13 15 18 18 17 17 17 17 16 16 15 14 13 13 12 11 10 10 9 8
15 13 13 13 12 11 11 12 11 13 13 13 14 15 15 15 15 15 14 13 13 13 15 15 15 15 15 15 15 14 14 13 13 13 12 12 12 11 10 9 9 8 8 8
14 11 13 12 12 12 12 12 14 12 13 14 13 14 14 15 14 13 13 14 14 14 14 14 14 13 14 14 13 12 12 11 10 11 11 11 10 9 8 8 8 7 6 5

GFSNGP_sfc_dewp_117.txt.gz
Dewpoint
20 16 21 25 30 23 23 25 17 13 7 21 28 32 38 40 40 40 42 42 42 44 45 44 44 45 46 46 47 49 52 54 55 56 57 57 57 57 58 58 57 55 55 54
18 21 21 26 32 30 22 19 16 15 16 17 32 35 36 39 40 42 41 41 41 41 41 43 43 43 44 45 46 46 46 50 55 55 55 56 56 58 58 57 58 57 55 54
15 17 24 28 28 28 30 32 23 23 22 34 24 38 39 41 43 42 40 40 39 39 39 39 42 43 43 43 44 43 43 44 46 54 55 56 55 55 56 57 57 57 57 56
17 19 22 27 24 31 29 27 31 32 36 39 40 43 43 43 41 40 39 39 38 37 37 37 38 41 42 41 41 41 40 40 41 43 47 53 55 55 55 57 57 56 57 56
18 16 20 24 23 22 25 28 35 32 36 41 40 40 39 38 39 38 38 38 37 36 35 35 36 37 38 38 38 38 38 39 39 40 41 44 50 55 55 55 56 56 56 56
20 14 15 23 23 24 27 30 36 39 40 40 40 38 37 37 36 35 35 35 35 35 34 34 34 35 35 35 35 35 36 37 37 39 38 40 42 45 53 56 55 56 53 50
20 20 15 26 27 31 28 32 39 39 41 41 39 39 38 37 35 34 34 34 34 33 32 31 32 33 32 32 32 33 35 35 35 36 37 38 40 43 46 49 44 40 37 37
23 19 18 33 30 32 37 39 39 40 41 39 38 38 37 36 34 33 33 32 32 31 30 29 29 30 29 30 30 32 32 34 34 34 35 34 37 39 40 40 36 34 33 32
26 26 35 35 36 38 37 38 38 42 42 40 37 35 34 32 31 30 30 29 29 29 29 29 28 28 28 30 30 31 31 31 32 32 33 33 33 35 35 35 34 33 32 29
27 30 32 33 34 36 37 37 38 37 38 37 34 32 31 30 30 29 28 28 28 28 26 27 26 26 27 29 30 30 30 30 30 31 30 31 32 32 32 32 32 31 29 27
27 28 30 30 34 35 34 35 37 36 33 33 32 30 30 29 29 28 28 27 27 27 26 25 25 26 27 28 30 29 29 30 30 30 29 28 28 30 30 30 31 29 28 26
28 33 32 31 34 35 33 33 34 35 33 30 30 30 30 30 29 28 27 27 26 26 25 24 24 25 26 28 29 29 28 28 29 28 28 27 26 26 29 28 28 28 27 25
31 34 35 34 36 34 35 34 35 34 35 34 30 29 29 28 28 27 26 26 25 26 25 25 25 25 26 28 29 30 29 28 28 28 27 27 26 25 24 27 28 27 26 26
33 34 33 32 30 34 35 37 36 33 30 33 32 28 28 29 29 27 25 26 25 25 25 25 25 25 28 30 31 31 31 29 29 29 28 27 27 26 26 24 23 25 26 26
27 26 27 29 28 30 30 30 30 27 27 26 26 26 26 26 25 25 26 28 26 24 24 24 23 24 28 29 28 30 29 29 29 28 28 27 27 26 25 24 23 23 25 25
24 25 22 21 21 21 24 26 27 25 25 25 26 24 24 25 24 23 23 23 24 23 24 24 23 25 27 30 29 29 29 28 28 27 26 26 27 27 26 25 25 25 24 26
21 21 19 18 18 19 19 21 23 25 25 24 23 25 23 24 23 23 23 23 23 24 25 24 25 26 27 30 29 27 27 26 26 26 25 26 25 24 24 24 23 21 22 25
17 17 15 15 16 18 19 20 20 21 22 23 23 24 23 23 22 22 23 24 26 23 24 25 26 25 25 27 26 26 25 25 25 25 25 25 23 23 23 22 20 19 20 21
14 14 15 13 14 17 18 18 20 20 22 23 23 22 22 21 21 22 23 22 22 21 22 23 24 23 23 25 25 25 25 24 23 22 23 23 24 23 23 22 21 20 19 18
13 13 14 15 15 15 16 18 18 19 19 21 22 21 20 19 20 21 22 20 20 20 20 21 23 23 23 24 25 25 26 25 24 25 25 24 23 22 21 19 19 19 19 18
16 14 14 14 15 15 15 17 16 16 17 18 19 18 18 19 19 20 22 19 19 20 21 21 20 21 21 23 25 27 26 26 26 24 23 22 21 20 20 20 19 18 18 17
17 14 13 13 14 14 15 15 15 15 16 16 16 17 20 20 20 18 18 20 18 20 19 19 19 20 21 24 24 26 24 24 24 24 22 21 21 20 19 18 17 17 17 16
17 16 15 13 13 14 14 15 14 15 15 15 16 18 17 18 18 18 17 17 17 19 18 18 19 21 23 25 25 25 24 22 21 21 20 20 20 19 17 17 16 16 16 15
15 15 15 15 14 14 15 15 16 15 15 17 15 15 18 21 19 19 18 17 17 17 17 18 19 20 21 23 23 22 21 21 20 20 19 17 18 17 16 15 15 14 13 12
15 16 16 16 16 14 15 14 17 17 17 17 17 17 17 16 18 17 19 17 16 17 18 17 18 19 21 21 21 21 20 19 19 18 17 17 16 15 15 14 13 13 12 11
17 15 15 15 14 14 14 14 14 14 16 17 17 18 18 18 18 17 16 15 16 15 17 17 19 18 19 18 18 16 16 15 16 15 15 15 14 14 12 11 11 11 11 11
16 14 15 15 14 14 13 14 16 15 16 17 15 16 16 17 16 16 16 17 16 16 17 17 17 16 17 17 16 15 15 15 14 14 14 14 13 12 12 11 11 10 8 7

GFSNGP_sfc_dewp_123.txt.gz
Dewpoint
22 22 21 21 21 32 32 31 25 25 26 32 39 42 44 44 43 46 46 44 44 43 43 44 44 43 43 43 44 45 46 46 47 50 53 57 57 59 57 57 55 55 55 55
21 22 22 19 31 33 33 33 32 32 31 39 41 41 41 39 39 41 41 40 39 40 43 43 43 42 41 41 41 43 43 43 44 45 48 51 56 58 58 57 55 55 55 55
19 22 21 26 32 32 32 34 33 30 36 40 39 39 39 40 41 41 40 35 35 35 37 40 42 42 40 40 39 39 39 40 42 42 44 44 47 56 57 57 56 55 55 54
21 22 16 28 26 27 31 33 34 33 36 40 40 42 43 43 43 42 41 35 34 34 33 34 37 40 39 37 37 37 37 38 39 40 41 42 43 45 50 56 56 55 54 54
22 22 20 26 25 28 28 32 34 34 35 38 38 37 35 36 37 37 34 33 32 31 31 31 32 34 33 34 35 35 35 36 37 37 39 39 39 40 43 47 54 55 55 54
25 22 20 25 28 30 27 27 35 34 35 36 39 32 35 33 33 32 33 30 29 29 28 28 29 31 31 31 32 33 34 34 35 35 37 37 37 39 41 43 47 50 44 41
24 22 27 28 30 29 20 25 34 33 36 35 32 35 36 34 29 29 29 30 29 28 27 27 28 30 29 30 31 32 33 33 32 32 34 35 36 37 38 41 41 37 35 34
25 22 16 30 27 25 31 35 35 33 36 37 36 36 35 34 29 28 27 27 27 26 26 26 27 29 28 29 30 31 31 31 30 30 30 32 34 35 35 36 34 33 32 31
26 26 33 31 30 33 34 34 34 35 36 37 33 32 31 28 28 27 26 26 26 25 25 26 26 27 28 30 29 30 29 29 29 28 28 29 30 31 33 34 33 31 30 30
27 30 30 30 30 31 35 33 35 36 37 36 33 33 28 27 27 26 25 25 25 24 24 25 25 27 28 30 29 28 28 28 27 27 26 27 27 28 28 29 32 31 29 27
26 28 28 31 30 30 33 34 33 35 35 35 34 29 27 26 25 25 25 24 25 24 23 23 25 26 29 30 29 28 28 28 27 26 25 25 26 27 27 28 29 28 27 27
17 29 29 29 33 31 30 34 33 33 34 35 31 29 27 26 25 24 24 23 22 22 23 23 25 26 29 30 29 28 26 26 27 26 25 25 24 25 29 28 29 29 28 27
27 31 32 32 31 31 32 32 35 34 33 32 34 29 27 25 26 26 24 24 23 23 23 24 24 26 28 30 29 29 27 26 26 25 25 24 23 23 22 26 28 28 28 28
34 33 28 28 23 30 30 32 33 30 31 30 30 32 29 27 25 23 25 25 25 22 22 21 21 24 28 29 29 26 27 27 26 25 24 23 23 23 23 22 22 24 28 29
26 28 29 28 26 27 25 26 26 26 26 26 26 28 27 24 23 23 22 23 23 23 21 19 18 23 27 28 27 28 25 24 22 25 25 24 23 23 23 23 23 23 23 24
23 21 20 20 19 20 23 23 23 23 23 24 25 25 25 24 23 23 23 23 21 20 21 20 17 22 26 29 28 27 26 26 26 26 25 23 22 21 21 21 21 21 21 21
19 17 17 16 17 19 20 20 20 20 21 23 24 23 23 23 23 22 22 17 14 18 17 18 20 20 23 28 28 22 22 25 23 25 24 22 20 19 19 19 19 19 19 19
17 16 15 15 16 18 18 18 19 18 19 22 21 18 18 19 17 17 18 20 11 12 19 22 21 22 24 27 26 25 24 24 24 24 23 21 20 20 19 18 18 17 17 16
15 16 15 14 14 16 16 16 20 18 17 19 19 13 14 15 17 15 13 13 13 14 17 22 26 25 25 27 26 23 21 20 22 23 22 19 20 20 19 19 17 16 16 15
14 14 16 15 15 15 17 18 18 18 17 17 16 15 12 11 15 16 10 11 14 21 21 21 22 23 24 26 25 24 22 22 23 21 20 20 19 17 17 15 15 14 13 12
15 14 15 17 16 16 15 17 17 16 16 15 14 13 12 10 12 14 17 15 17 20 19 19 21 21 24 25 25 22 22 21 19 18 16 13 17 17 15 14 12 11 10 11
10 7 6 8 13 10 11 12 14 12 11 10 11 12 12 14 10 10 10 14 16 16 16 18 20 21 23 23 23 22 22 22 21 20 19 17 13 12 10 12 12 12 11 10
9 13 8 5 4 7 6 7 5 6 5 5 7 12 15 11 12 12 10 15 15 14 17 18 18 20 21 22 22 21 21 20 20 20 19 17 15 14 11 8 10 12 10 10
8 9 8 11 8 10 6 5 6 6 8 7 5 4 11 15 11 16 12 14 14 9 12 16 18 18 18 19 20 19 19 18 17 17 17 15 13 14 13 11 10 9 8 8
13 12 11 13 17 18 16 17 12 14 16 8 10 11 13 12 7 7 9 10 12 12 13 12 16 16 16 16 16 16 17 17 16 14 14 12 11 11 9 9 7 7 5 6
14 13 11 10 12 12 14 16 11 9 17 12 7 8 6 8 13 14 8 9 10 11 8 10 14 13 14 14 14 14 13 14 15 15 13 11 9 9 9 8 8 8 6 4
13 13 21 17 12 13 11 10 11 7 7 13 7 9 13 13 11 12 11 9 8 6 5 7 10 10 10 9 9 10 12 13 12 13 12 10 9 10 10 7 5 5 3 3

GFSNGP_sfc_dewp_126.txt.gz
Dewpoint
16 17 19 21 29 29 31 30 26 28 30 35 38 41 41 41 40 40 43 44 43 43 43 42 42 42 41 41 41 43 43 44 45 48 51 55 58 58 58 57 56 56 55 54
18 18 20 21 27 28 32 30 26 26 28 34 40 40 40 39 39 39 39 39 40 41 41 41 40 40 39 39 39 39 40 40 41 43 46 49 50 56 57 57 56 55 53 54
15 18 20 26 28 26 31 30 31 26 31 35 39 39 40 41 40 40 39 38 34 32 33 39 39 38 37 37 38 38 38 38 38 39 41 43 45 49 56 56 55 54 54 54
18 21 13 25 25 25 27 32 32 31 32 35 38 37 36 39 41 39 37 37 34 30 29 34 34 34 35 35 35 36 36 35 36 37 38 39 41 43 45 50 55 55 54 54
23 21 21 23 23 25 26 28 31 31 32 35 38 36 35 34 32 31 30 29 28 28 28 31 31 31 32 33 34 34 34 34 34 35 36 37 37 39 42 44 49 54 54 53
23 19 17 23 25 27 28 24 31 32 33 34 35 27 31 30 29 29 28 27 26 27 27 29 29 30 30 30 31 32 32 32 32 32 34 34 35 37 38 41 45 48 43 42
22 20 23 27 27 27 19 22 32 33 34 35 31 34 35 35 29 26 26 26 26 26 26 27 28 30 29 29 30 31 31 31 30 30 31 32 34 35 36 38 37 35 34 33
21 18 13 29 25 22 28 31 34 34 35 35 35 34 31 28 28 27 25 25 25 25 25 26 27 28 30 28 29 30 29 29 28 29 29 30 30 32 34 35 33 32 32 31
21 22 31 29 28 30 33 32 33 34 36 36 34 33 29 27 26 25 24 24 25 24 25 25 27 28 29 29 28 28 28 27 27 27 28 29 27 28 30 33 33 32 29 28
26 30 29 30 29 29 31 30 33 35 35 35 31 31 27 25 25 24 24 24 24 23 23 25 26 28 30 29 28 27 27 26 26 26 26 27 27 27 27 28 32 31 31 28
25 28 30 30 29 30 29 33 31 34 34 34 31 28 28 25 24 23 23 23 23 23 23 24 26 27 29 29 27 26 27 26 25 25 25 26 27 27 27 28 29 27 26 27
18 28 27 29 31 30 30 31 34 31 31 34 31 28 26 26 24 22 22 22 21 22 22 23 24 27 28 29 28 27 25 25 25 25 25 24 25 25 29 28 29 29 29 27
26 31 31 30 30 30 30 33 34 31 30 29 32 28 25 25 26 24 23 23 22 22 22 23 23 26 28 29 28 28 26 25 24 24 23 23 24 24 23 27 28 28 29 29
32 32 29 25 22 29 29 31 30 27 27 27 29 29 26 25 24 23 22 21 21 19 19 19 20 23 26 28 25 22 21 24 24 24 24 23 23 24 24 23 21 23 27 27
26 32 28 25 27 26 26 26 24 23 24 24 26 26 23 23 23 22 22 17 12 14 16 16 17 21 25 25 23 21 20 18 17 23 24 23 20 22 24 22 21 21 21 21
20 19 19 19 21 21 21 21 20 20 21 24 23 25 24 23 24 22 21 21 19 18 18 17 18 21 24 26 23 20 22 23 21 20 19 19 19 19 19 19 19 19 18 18
19 16 16 16 18 19 18 19 19 19 19 21 21 22 22 21 20 20 19 16 13 14 17 17 19 22 23 25 21 19 19 21 20 21 19 18 18 18 18 17 16 16 16 16
16 15 15 15 17 17 16 17 17 16 18 19 19 17 16 14 12 11 12 13 14 12 16 20 23 24 25 26 24 22 21 21 21 19 19 16 17 18 17 16 15 14 14 14
16 15 14 13 15 16 15 16 16 16 16 17 15 11 12 14 14 9 7 10 13 15 15 20 23 23 24 26 24 21 19 19 20 19 18 15 15 16 15 14 13 13 13 12
14 15 15 14 14 16 16 16 17 16 17 16 11 9 11 12 14 10 7 10 14 18 19 19 20 21 22 25 23 21 21 20 20 18 15 14 12 10 10 11 12 10 8 8
14 14 15 15 13 13 11 13 14 14 14 14 13 9 10 6 11 12 12 12 14 17 17 18 19 20 22 22 23 21 19 18 17 17 17 13 10 9 7 5 5 4 5 5
11 9 7 8 9 7 8 9 11 6 5 8 9 9 8 9 7 7 5 9 14 12 15 17 18 19 21 21 22 20 21 20 18 18 17 15 13 9 5 5 4 3 1 -1
7 6 5 3 3 5 4 4 2 2 1 0 4 10 10 9 8 7 7 14 14 14 15 16 17 17 19 19 18 18 18 17 18 18 16 14 12 8 7 6 4 1 -1 -1
5 6 6 7 4 8 6 3 2 3 2 2 0 -1 9 4 7 12 9 13 12 9 10 16 16 16 15 16 17 17 17 15 14 14 14 12 12 11 8 7 6 1 -2 -2
10 7 8 11 14 14 11 10 9 10 10 5 4 7 10 8 4 5 3 5 10 8 8 10 13 14 14 14 13 14 15 14 14 12 12 11 10 8 7 7 6 4 1 -1
14 12 8 7 8 8 9 13 6 10 11 5 4 -1 1 2 9 8 4 4 6 5 5 8 9 10 11 11 11 11 11 12 12 11 9 7 6 6 6 5 4 2 0 -2
8 15 15 12 8 9 7 7 4 1 3 1 1 1 8 4 5 7 5 3 0 -1 2 5 7 8 8 9 10 8 9 10 10 10 7 8 8 5 3 1 -0 -1 -1 0